Monte Terminillo, Italy

6:11 PM CEST on August 20, 2017 (GMT +0200)
Monte Terminillo

Weather History for LIRK - November, 2012

Change the Weather History Date:

Tuesday, November 6, 2012

  Actual Average Record
Temperature  
Mean Temperature 36 °F -  
Max Temperature 38 °F 38 °F 53 °F (2010)
Min Temperature 35 °F 30 °F 24 °F (2002)
Degree Days  
Heating Degree Days 28    
Moisture  
Dew Point 36 °F    
Average Humidity 100    
Maximum Humidity 100    
Minimum Humidity 98    
Precipitation  
Precipitation 0.00 in -13.12 in - ()
Sea Level Pressure  
Sea Level Pressure 29.99 in    
Wind  
Wind Speed 14 mph ()    
Max Wind Speed 29 mph    
Max Gust Speed -    
Visibility 1.7 miles    
Events Fog , Rain    
Averages and records for this station are not official NWS values.
T = Trace of Precipitation, MM = Missing Value Source: Averaged Metar Reports

Daily Weather History Graph

Daily Weather History Graph

Search for Another Location

Airport or City:

Trip Planner

Search our weather history database for the weather conditions in past years. The results will help you decide how hot, cold, wet, or windy it might be!

Date:

Astronomy

Nov. 06, 2012 Rise Set
Actual Time 6:48 AM CET 4:54 PM CET
Civil Twilight 6:18 AM CET 5:24 PM CET
Nautical Twilight 5:44 AM CET 5:57 PM CET
Astronomical Twilight 5:12 AM CET 6:30 PM CET
Moon 11:17 PM CET (11/6) 12:30 PM CET (11/6)
Length of Visible Light 11h 05m
Length of Day
10h 06m
Waning Gibbous, 56% of the Moon is Illuminated
Nov 6
Waning Gibbous
Nov 7
Last Quarter
Nov 13
New
Nov 20
First Quarter
Nov 28
Full

Hourly Weather History & Observations

Time (CET) Temp. Windchill Dew Point Humidity Pressure Visibility Wind Dir Wind Speed Gust Speed Precip Events Conditions
12:55 AM 35.6 °F - 35.6 °F 100% 29.92 in 0.0 mi North - - N/A Fog Fog
1:00 AM 36 °F - 36 °F 98%  in 0 mi West 28.8 mph - -  
1:55 AM 35.6 °F - 35.6 °F 100% 29.92 in 0.0 mi North - - N/A Fog Fog
2:55 AM 35.6 °F - 35.6 °F 100% 29.95 in 0.0 mi North - - N/A Fog Fog
3:55 AM 35.6 °F - 35.6 °F 100% 29.95 in 0.0 mi North - - N/A Fog Fog
4:55 AM 35.6 °F - 35.6 °F 100% 29.95 in 0.0 mi North - - N/A Fog Fog
5:55 AM 35.6 °F - 35.6 °F 100% 29.95 in - North - - N/A   Partly Cloudy
6:55 AM 35.6 °F - 35.6 °F 100% 29.95 in - North - - N/A Fog Fog
7:00 AM 35 °F - 35 °F 99%  in 7 mi WSW 19.6 mph - -  
8:55 AM 35.6 °F - 35.6 °F 100% 29.98 in - North - - N/A   Clear
10:55 AM 37.4 °F - 37.4 °F 100% 30.01 in - North - - N/A   Scattered Clouds
11:55 AM 37.4 °F - 37.4 °F 100% 30.01 in - North - - N/A   Scattered Clouds
12:55 PM 37.4 °F - 37.4 °F 100% 30.01 in - North - - N/A   Scattered Clouds
1:00 PM 37 °F - 37 °F 98%  in 16 mi WSW 9.2 mph - -  
1:55 PM 37.4 °F 30.8 °F 37.4 °F 100% 30.01 in 6.2 mi West 9.2 mph - N/A   Scattered Clouds
2:55 PM 37.4 °F - 37.4 °F 100% 30.01 in - North - - N/A   Scattered Clouds
3:55 PM 37.4 °F - 37.4 °F 100% 30.01 in - North - - N/A   Scattered Clouds
4:55 PM 37.4 °F - 37.4 °F 100% 30.01 in - North - - N/A Fog , Rain Rain
5:55 PM 37.4 °F - 37.4 °F 100% 30.01 in 0.0 mi North - - N/A Fog , Rain Rain
6:55 PM 37.4 °F - 37.4 °F 100% 30.01 in 0.0 mi North - - N/A Fog Fog
7:00 PM 38 °F - 38 °F 100%  in 0 mi West 16.1 mph - -  
7:55 PM 37.4 °F - 37.4 °F 100% 30.01 in 0.0 mi North - - N/A Fog Fog
8:55 PM 35.6 °F - 35.6 °F 100% 30.04 in 0.0 mi North - - N/A Fog Fog
9:55 PM 35.6 °F - 35.6 °F 100% 30.04 in 0.0 mi North - - N/A Fog Fog
10:55 PM 35.6 °F - 35.6 °F 100% 30.04 in 0.0 mi North - - N/A Fog Fog
11:55 PM 35.6 °F - 35.6 °F 100% 30.06 in 0.0 mi North - - N/A Fog Fog